Regional Weather Roundup
Issued by NWS

Home | Current Version | Previous Version | Graphics & Text | Print | Product List | Glossary On
Versions: 1 2 3 4 5 6 7 8 9 10 11 12 13 14 15 16 17 18 19 20 21 22 23 24 25 26 27 28 29 30 31 32 33 34 35 36 37 38 39 40 41 42 43 44 45 46 47 48 49 50
403
ASUS43 KBIS 182002
RWRND

NORTH DAKOTA REGIONAL WEATHER ROUNDUP
NATIONAL WEATHER SERVICE BISMARCK ND
200 PM CST WED JAN 18 2017

NOTE: "FAIR" INDICATES FEW OR NO CLOUDS BELOW 12,000 FEET WITH NO
SIGNIFICANT WEATHER AND/OR OBSTRUCTIONS TO VISIBILITY.


NDZ001>003-009>011-017-182100-
NORTHWEST NORTH DAKOTA

CITY           SKY/WX    TMP DP  RH WIND       PRES   REMARKS
WILLISTON      FAIR      37  26  64 SW10      29.58F
MINOT          FAIR      42  27  55 SW13      29.57F
MINOT AFB      CLOUDY    42  28  58 SW10      29.55F
$$

NDZ018>021-031>035-040>046-182100-
SOUTHWEST NORTH DAKOTA

CITY           SKY/WX    TMP DP  RH WIND       PRES   REMARKS
BISMARCK       FAIR      33  25  72 E3        29.68F
DICKINSON      FAIR      39  26  59 SW17      29.61F
GARRISON         N/A     36  28  73 CALM      29.61F
HETTINGER ARPT CLOUDY    42  26  53 CALM      29.67F
$$

NDZ004>008-012>016-024-026-027-054-182100-
NORTHEAST NORTH DAKOTA

CITY           SKY/WX    TMP DP  RH WIND       PRES   REMARKS
GRAND FORKS    CLOUDY    31  23  72 S10       29.67F
GRND FRKS AFB  CLOUDY    36  28  70 S9        29.66F
DEVILS LAKE    MIX PCPN  37  29  72 SW5       29.65F
$$

NDZ022-023-025-028>030-036>039-047>053-182100-
SOUTHEAST NORTH DAKOTA

CITY           SKY/WX    TMP DP  RH WIND       PRES   REMARKS
FARGO          SUNNY     35  26  69 S10       29.71F
JAMESTOWN      FAIR      38  28  67 SW10      29.66F
$$





USA.gov is the U.S. government's official web portal to all federal, state and local government web resources and services.